• Join FlightAware (Why Join?)
  • Login
  • US Flag 
05:44AM EDT


 

Airport Tracker/Info


-or-


 

Live Flight TrackerFlight Track Log ✈ EJA396 ✈ 25-Sep-2013 ✈ KBED - KALB

Flight Track Log - Related Links

Times and Time Zones

All times are in EDT time to prevent confusion due to time zone crossing. See the EJA396 flight status page for this flight to view local times or setup timezone preferences in your user account.

Time Position Orientation Groundspeed Altitude Reporting Facility
EDT Latitude Longitude Course Direction KTS MPH feet Rate Location/Type
02:19PM 42.4833 -71.2667 20° North 148 170 1,400  Level KA90
02:20PM 42.5167 -71.2500 20° North 189 217 2,700 840 Climbing KA90
02:21PM 42.5167 -71.3167 270° West 220 253 3,000 240 Climbing KA90
02:22PM 42.4667 -71.3833 225° Southwest 257 296 3,300 1,560 Climbing KA90
02:23PM 42.4167 -71.4500 225° Southwest 271 312 6,200 3,120 Climbing KA90
02:24PM 42.3739 -71.5492 240° Southwest 282 325 9,700 1,620 Climbing Boston Center
02:25PM 42.3228 -71.6764 242° Southwest 348 400 10,000 120 Climbing Boston Center
02:26PM 42.2778 -71.7892 242° Southwest 347 399 10,000  Level Boston Center
02:27PM 42.2700 -71.9156 265° West 332 382 10,000  Level Boston Center
02:28PM 42.2725 -72.0081 272° West 331 381 10,000  Level Boston Center
02:29PM 42.2772 -72.1650 272° West 337 388 10,000  Level Boston Center
02:29PM 42.2939 -72.2353 288° West 329 379 10,000  Level Boston Center
02:31PM 42.3253 -72.3475 291° West 315 362 10,000  Level Boston Center
02:32PM 42.3608 -72.4711 291° West 324 373 10,000  Level Boston Center
02:32PM 42.3817 -72.5328 295° West 322 371 10,000  Level Boston Center
02:33PM 42.4106 -72.6228 294° West 326 375 10,000  Level Boston Center
02:34PM 42.4397 -72.7356 289° West 325 374 10,000  Level Boston Center
02:35PM 42.4808 -72.8764 292° West 327 376 10,000  Level Boston Center
02:36PM 42.5158 -72.9894 293° West 330 380 10,000  Level Boston Center
02:37PM 42.5486 -73.1053 291° West 330 380 10,000 -240 Level Boston Center
02:38PM 42.5708 -73.1956 289° West 328 377 9,600 -1,140 Descending Boston Center
02:39PM 42.5889 -73.3172 281° West 273 314 7,900 -1,500 Descending Boston Center
02:40PM 42.6003 -73.4244 278° West 264 304 6,300 -1,560 Descending Boston Center
02:41PM 42.5933 -73.5006 263° West 264 304 5,100 -900 Descending Boston Center
02:42PM 42.5819 -73.5989 261° West 264 304 4,700 -840 Descending Boston Center
02:43PM 42.5744 -73.7231 265° West 258 297 3,200 -960 Descending Boston Center
02:44PM 42.5964 -73.8022 291° West 229 264 2,600 -660 Descending Boston Center
02:45PM 42.6444 -73.8033 359° North 208 239 2,100 -840 Descending Boston Center
02:46PM 42.6964 -73.8044 359° North 186 214 1,200 -840 Descending Boston Center
02:47PM 42.7297 -73.8081 355° North 104 120 500 -780 Descending Boston Center